FW7817 Weather Reports


Display with metric or nautical units.
time (UTC)temp
F
wind
direction
speed
MPH
gust
MPH
rain 1hr
in
rain 24hr
in
rain mn
in
humidity
%
barometer
mb
20260502151248 58 257 2.0 9.0 0.00 0.00 0.00 43 1023.4
20260502150750 58 286 2.0 9.0 0.00 0.00 0.00 40 1023.4
20260502150249 58 316 1.0 4.0 0.00 0.00 0.00 44 1023.5
20260502130740 42 314 1.0 5.0 0.00 0.00 0.00 76 1023.2
20260502130241 41 305 1.0 5.0 0.00 0.00 0.00 78 1023.2
20260502123736 38 246 0.0 2.0 0.00 0.00 0.00 82 1023.0
20260502122738 37 248 0.0 3.0 0.00 0.00 0.00 82 1022.8
20260502122232 37 244 0.0 2.0 0.00 0.00 0.00 82 1022.7
20260502121733 37 309 0.0 2.0 0.00 0.00 0.00 82 1022.8
20260502121231 36 309 0.0 1.0 0.00 0.00 0.00 82 1022.7
20260502120731 36 324 0.0 1.0 0.00 0.00 0.00 82 1022.7
20260502120231 36 324 0.0 1.0 0.00 0.00 0.00 81 1022.7
20260502115731 36 324 0.0 1.0 0.00 0.00 0.00 81 1022.6
20260502115230 36 324 0.0 0.0 0.00 0.00 0.00 81 1022.5
20260502114728 36 324 0.0 0.0 0.00 0.00 0.00 81 1022.4
20260502114226 36 324 0.0 0.0 0.00 0.00 0.00 80 1022.3
20260502113726 36 324 0.0 1.0 0.00 0.00 0.00 80 1022.2
20260502113223 36 324 0.0 1.0 0.00 0.00 0.00 80 1022.3
20260502112721 36 324 0.0 0.0 0.00 0.00 0.00 80 1022.2
20260502111719 37 324 0.0 0.0 0.00 0.00 0.00 79 1022.0
20260502111216 37 324 0.0 0.0 0.00 0.00 0.00 79 1022.0
20260502110716 37 324 0.0 0.0 0.00 0.00 0.00 79 1022.0
20260502110216 37 324 0.0 0.0 0.00 0.00 0.00 79 1022.0
20260502105711 37 324 0.0 1.0 0.00 0.00 0.00 79 1022.0
20260502105203 37 324 0.0 1.0 0.00 0.00 0.00 78 1022.0
20260502103645 37 324 0.0 0.0 0.00 0.00 0.00 78 1021.9
20260502103140 37 324 0.0 0.0 0.00 0.00 0.00 78 1022.0
20260502102634 38 324 0.0 0.0 0.00 0.00 0.00 77 1021.9
20260502102127 38 324 0.0 0.0 0.00 0.00 0.00 77 1021.9
20260502101622 38 324 0.0 0.0 0.00 0.00 0.00 77 1021.8
20260502101116 38 324 0.0 0.0 0.00 0.00 0.00 77 1021.8
20260502100609 38 324 0.0 0.0 0.00 0.00 0.00 77 1021.8
20260502100104 38 324 0.0 0.0 0.00 0.00 0.00 77 1021.8
20260502091004 39 324 0.0 1.0 0.00 0.00 0.00 73 1021.7
20260502090500 39 324 0.0 0.0 0.00 0.00 0.00 72 1021.6
20260502071412 44 324 0.0 0.0 0.00 0.00 0.00 59 1021.4
20260502070910 44 324 0.0 0.0 0.00 0.00 0.00 58 1021.3
20260502070408 44 324 0.0 0.0 0.00 0.00 0.00 58 1021.4
20260502065912 45 324 0.0 0.0 0.00 0.00 0.00 57 1021.4
20260502065405 45 324 0.0 0.0 0.00 0.00 0.00 56 1021.5
20260502064858 45 324 0.0 0.0 0.00 0.00 0.00 56 1021.5
20260502063847 45 324 0.0 1.0 0.00 0.00 0.00 56 1021.5
20260502063340 45 324 0.0 1.0 0.00 0.00 0.00 55 1021.6
20260502062835 45 324 0.0 0.0 0.00 0.00 0.00 55 1021.5
20260502062328 45 324 0.0 2.0 0.00 0.00 0.00 55 1021.5
20260502061822 46 324 0.0 2.0 0.00 0.00 0.00 55 1021.5
20260502061317 46 325 0.0 0.0 0.00 0.00 0.00 56 1021.4
20260502060811 46 325 0.0 0.0 0.00 0.00 0.00 54 1021.5
20260502060304 46 325 0.0 0.0 0.00 0.00 0.00 55 1021.4
20260502055759 47 325 0.0 0.0 0.00 0.00 0.00 54 1021.4
20260502055252 47 325 0.0 0.0 0.00 0.00 0.00 54 1021.4
20260502054748 47 325 0.0 0.0 0.00 0.00 0.00 54 1021.4
20260502054243 47 325 0.0 0.0 0.00 0.00 0.00 54 1021.3
20260502053739 48 325 0.0 0.0 0.00 0.00 0.00 54 1021.3
20260502053237 48 325 0.0 0.0 0.00 0.00 0.00 54 1021.3
20260502052737 48 325 0.0 0.0 0.00 0.00 0.00 53 1021.3
20260502052237 48 325 0.0 1.0 0.00 0.00 0.00 51 1021.3
20260502051737 48 325 0.0 1.0 0.00 0.00 0.00 51 1021.3
20260502051237 49 325 0.0 1.0 0.00 0.00 0.00 51 1021.3
20260502050739 49 325 0.0 1.0 0.00 0.00 0.00 51 1021.3
20260502050239 49 325 0.0 2.0 0.00 0.00 0.00 51 1021.2
20260502045737 49 325 0.0 2.0 0.00 0.00 0.00 51 1021.1
20260502044727 49 315 0.0 2.0 0.00 0.00 0.00 51 1021.1
20260502044220 50 315 0.0 2.0 0.00 0.00 0.00 50 1021.0
20260502043714 50 315 0.0 2.0 0.00 0.00 0.00 50 1021.1
20260502043208 50 47 0.0 2.0 0.00 0.00 0.00 50 1021.0
20260502042706 50 5 0.0 2.0 0.00 0.00 0.00 50 1021.0
20260502041651 51 5 0.0 2.0 0.00 0.00 0.00 50 1021.0
20260502041146 51 350 0.0 2.0 0.00 0.00 0.00 50 1020.9
20260502040639 51 355 1.0 2.0 0.00 0.00 0.00 50 1021.0
20260502040132 51 355 1.0 3.0 0.00 0.00 0.00 49 1020.9
20260502035627 51 340 1.0 3.0 0.00 0.00 0.00 50 1020.9
20260502035120 51 59 1.0 3.0 0.00 0.00 0.00 50 1020.9
20260502034613 52 344 1.0 3.0 0.00 0.00 0.00 50 1020.9
20260502034108 52 355 1.0 3.0 0.00 0.00 0.00 50 1020.8
20260502033603 52 339 0.0 3.0 0.00 0.00 0.00 51 1020.8
20260502033056 52 304 0.0 3.0 0.00 0.00 0.00 51 1020.7
20260502032550 53 279 1.0 3.0 0.00 0.00 0.00 51 1020.8
20260502032044 53 308 1.0 3.0 0.00 0.00 0.00 51 1020.7
20260502031537 53 339 1.0 3.0 0.00 0.00 0.00 52 1020.7
20260502031032 53 355 1.0 3.0 0.00 0.00 0.00 52 1020.6
20260502030526 53 329 1.0 3.0 0.00 0.00 0.00 53 1020.6
20260502025514 53 293 1.0 3.0 0.00 0.00 0.00 54 1020.4
20260502025008 54 279 1.0 3.0 0.00 0.00 0.00 53 1020.3
20260502024501 54 95 0.0 3.0 0.00 0.00 0.00 53 1020.0
20260502023957 54 302 0.0 2.0 0.00 0.00 0.00 53 1019.9
20260502022944 55 302 0.0 2.0 0.00 0.00 0.00 52 1019.8
20260502022438 55 302 0.0 2.0 0.00 0.00 0.00 52 1019.5
20260502021932 56 302 0.0 0.0 0.00 0.00 0.00 51 1019.4
20260502021427 56 302 0.0 0.0 0.00 0.00 0.00 50 1019.4
20260502020920 56 302 0.0 0.0 0.00 0.00 0.00 49 1019.3
20260502020413 56 302 0.0 0.0 0.00 0.00 0.00 48 1019.2
20260502015907 57 302 0.0 0.0 0.00 0.00 0.00 48 1019.0
20260502014857 58 302 0.0 0.0 0.00 0.00 0.00 46 1018.8
20260502014350 58 302 0.0 0.0 0.00 0.00 0.00 46 1018.7
20260502013845 58 302 0.0 1.0 0.00 0.00 0.00 46 1018.7
20260502013338 58 302 0.0 3.0 0.00 0.00 0.00 45 1018.6
20260502012833 59 302 1.0 3.0 0.00 0.00 0.00 45 1018.6
20260502011819 60 301 1.0 3.0 0.00 0.00 0.00 43 1018.6
20260502011314 60 299 1.0 3.0 0.00 0.00 0.00 43 1018.5
20260502010810 60 297 1.0 4.0 0.00 0.00 0.00 43 1018.5
20260502005756 61 292 1.0 6.0 0.00 0.00 0.00 42 1018.3
20260502005250 61 333 1.0 5.0 0.00 0.00 0.00 41 1018.4
20260502004744 62 305 2.0 7.0 0.00 0.00 0.00 40 1018.3
20260502004238 62 302 2.0 7.0 0.00 0.00 0.00 39 1018.2
20260502003732 62 315 2.0 8.0 0.00 0.00 0.00 39 1018.1
20260502003226 62 316 3.0 10.0 0.00 0.00 0.00 38 1017.9
20260502001720 62 304 3.0 9.0 0.00 0.00 0.00 37 1017.9
20260502000715 62 311 4.0 12.0 0.00 0.00 0.00 37 1017.9
20260502000214 63 281 3.0 12.0 0.00 0.00 0.00 38 1017.9
20260501235714 62 350 3.0 8.0 0.00 0.00 0.00 38 1017.9
20260501235213 62 304 3.0 9.0 0.00 0.00 0.00 39 1017.7
20260501234712 63 294 3.0 9.0 0.00 0.00 0.00 37 1017.8
20260501233712 63 300 5.0 13.0 0.00 0.00 0.00 37 1017.7
20260501233212 63 290 5.0 12.0 0.00 0.00 0.00 36 1017.8
20260501232713 63 334 4.0 12.0 0.00 0.00 0.00 38 1017.6
20260501232213 63 306 3.0 12.0 0.00 0.00 0.00 38 1017.6
20260501231712 63 315 3.0 9.0 0.00 0.00 0.00 37 1017.5
20260501231212 64 294 4.0 10.0 0.00 0.00 0.00 36 1017.7
20260501230708 64 332 4.0 13.0 0.00 0.00 0.00 36 1017.7
20260501230209 64 321 3.0 13.0 0.00 0.00 0.00 36 1017.6
20260501225708 64 259 3.0 9.0 0.00 0.00 0.00 36 1017.6
20260501225209 65 286 3.0 9.0 0.00 0.00 0.00 35 1017.6
20260501223707 65 312 3.0 9.0 0.00 0.00 0.00 37 1017.7
20260501223209 65 234 4.0 12.0 0.00 0.00 0.00 38 1017.7
20260501222204 65 306 2.0 7.0 0.00 0.00 0.00 39 1017.7
20260501221704 65 299 3.0 12.0 0.00 0.00 0.00 40 1017.8
20260501221204 65 303 4.0 12.0 0.00 0.00 0.00 37 1017.8
20260501220704 65 309 4.0 11.0 0.00 0.00 0.00 37 1017.8
20260501220203 66 297 4.0 19.0 0.00 0.00 0.00 40 1017.8
20260501215703 65 305 5.0 19.0 0.00 0.00 0.00 38 1017.9
20260501215203 65 252 4.0 13.0 0.00 0.00 0.00 37 1017.8
20260501214703 65 284 3.0 10.0 0.00 0.00 0.00 40 1017.8
20260501214203 65 268 4.0 10.0 0.00 0.00 0.00 37 1017.8
20260501213656 66 69 4.0 11.0 0.00 0.00 0.00 37 1017.9
20260501213151 66 263 4.0 11.0 0.00 0.00 0.00 37 1018.1
20260501212645 65 229 5.0 12.0 0.00 0.00 0.00 41 1018.2
20260501212138 65 285 4.0 12.0 0.00 0.00 0.00 39 1018.2
20260501211633 65 346 2.0 9.0 0.00 0.00 0.00 39 1018.2
20260501211131 65 244 4.0 15.0 0.00 0.00 0.00 43 1018.2
20260501210632 64 316 6.0 15.0 0.00 0.00 0.00 39 1018.4
20260501210130 65 315 4.0 12.0 0.00 0.00 0.00 40 1018.4
20260501205630 65 301 4.0 13.0 0.00 0.00 0.00 43 1018.6
20260501205131 65 306 4.0 13.0 0.00 0.00 0.00 40 1018.6
20260501204128 65 304 4.0 11.0 0.00 0.00 0.00 41 1018.7
20260501203627 66 267 4.0 11.0 0.00 0.00 0.00 40 1018.7
20260501203126 66 281 5.0 12.0 0.00 0.00 0.00 42 1018.8
20260501202626 67 321 4.0 12.0 0.00 0.00 0.00 40 1018.8
20260501201623 65 307 2.0 6.0 0.00 0.00 0.00 42 1018.8
20260501201124 65 276 3.0 11.0 0.00 0.00 0.00 43 1019.0
20260501200624 65 313 4.0 11.0 0.00 0.00 0.00 40 1019.1
20260501195125 65 289 4.0 11.0 0.00 0.00 0.00 38 1019.3
20260501194620 66 5 4.0 9.0 0.00 0.00 0.00 38 1019.4
20260501194113 66 307 3.0 8.0 0.00 0.00 0.00 40 1019.4
20260501193607 66 208 3.0 9.0 0.00 0.00 0.00 37 1019.3
20260501193102 66 274 4.0 12.0 0.00 0.00 0.00 47 1019.3
20260501192555 65 283 3.0 12.0 0.00 0.00 0.00 38 1019.3
20260501192050 65 296 3.0 11.0 0.00 0.00 0.00 39 1019.4
20260501191543 65 225 3.0 10.0 0.00 0.00 0.00 39 1019.3
20260501191038 66 342 3.0 10.0 0.00 0.00 0.00 40 1019.3
20260501190532 66 284 3.0 11.0 0.00 0.00 0.00 39 1019.3
20260501190026 67 296 3.0 11.0 0.00 0.00 0.00 43 1019.3
20260501185519 66 295 3.0 9.0 0.00 0.00 0.00 44 1019.4
20260501185013 64 296 3.0 8.0 0.00 0.00 0.00 41 1019.4
20260501184002 65 306 3.0 10.0 0.00 0.00 0.00 37 1019.3
20260501183456 66 292 3.0 10.0 0.00 0.00 0.00 44 1019.4
20260501182949 67 309 2.0 8.0 0.00 0.00 0.00 46 1019.4
20260501182443 67 271 2.0 10.0 0.00 0.00 0.00 40 1019.4
20260501181940 67 288 4.0 11.0 0.00 0.00 0.00 40 1019.5
20260501181432 66 279 4.0 11.0 0.00 0.00 0.00 39 1019.7
20260501180925 66 267 3.0 10.0 0.00 0.00 0.00 41 1019.7
20260501180420 66 273 3.0 12.0 0.00 0.00 0.00 37 1019.7
20260501175914 66 315 3.0 12.0 0.00 0.00 0.00 37 1019.8
20260501175407 66 296 3.0 10.0 0.00 0.00 0.00 39 1019.8
20260501174901 65 293 3.0 10.0 0.00 0.00 0.00 43 1019.8
20260501174355 65 292 3.0 10.0 0.00 0.00 0.00 38 1020.0
20260501173849 65 261 4.0 15.0 0.00 0.00 0.00 37 1020.0
20260501173343 65 320 4.0 15.0 0.00 0.00 0.00 39 1020.0
20260501172837 65 312 3.0 9.0 0.00 0.00 0.00 40 1019.9
20260501172331 66 307 2.0 7.0 0.00 0.00 0.00 43 1020.1
20260501171826 65 273 3.0 9.0 0.00 0.00 0.00 44 1020.1
20260501171320 65 300 3.0 9.0 0.00 0.00 0.00 39 1020.1
20260501170813 64 44 3.0 12.0 0.00 0.00 0.00 37 1020.1
20260501170307 64 305 3.0 12.0 0.00 0.00 0.00 37 1020.1
20260501165803 65 311 3.0 10.0 0.00 0.00 0.00 44 1020.1
20260501165255 64 275 2.0 10.0 0.00 0.00 0.00 38 1020.2
20260501164244 64 313 2.0 9.0 0.00 0.00 0.00 41 1020.2
20260501163738 64 252 2.0 9.0 0.00 0.00 0.00 45 1020.2
20260501163231 65 273 2.0 6.0 0.00 0.00 0.00 40 1020.2
20260501162730 65 273 2.0 8.0 0.00 0.00 0.00 37 1020.3
20260501162231 65 223 2.0 8.0 0.00 0.00 0.00 41 1020.4
20260501161731 65 309 2.0 6.0 0.00 0.00 0.00 42 1020.3
20260501161231 65 290 2.0 6.0 0.00 0.00 0.00 40 1020.4
20260501160731 65 253 1.0 5.0 0.00 0.00 0.00 43 1020.4
20260501155730 64 247 2.0 8.0 0.00 0.00 0.00 42 1020.4
20260501154227 63 232 2.0 7.0 0.00 0.00 0.00 44 1020.4
20260501153727 63 230 2.0 8.0 0.00 0.00 0.00 44 1020.3
20260501153227 62 259 3.0 8.0 0.00 0.00 0.00 45 1020.3
20260501152728 62 333 3.0 8.0 0.00 0.00 0.00 42 1020.3
20260501152227 62 237 2.0 7.0 0.00 0.00 0.00 45 1020.4